www.pogodaiklimat.ru

Погода и климат >> Архив погоды >> Кувейт >> Abraque Al Habari


ПОГОДА в Abraque Al Habari

  • Прогноз погоды в Abraque Al Habari
  • Монитор погоды в Abraque Al Habari
  • Климат города

АРХИВ ПОГОДЫ в Abraque Al Habari

Время (UTC), дата Ветер
(напр.,м/с)
 
Видим.   Явления Облачность Т
(С)
Тd
(С)
f
(%)
Тe
(С)
Тes
(С)
Комфортность P
(гПа)
Po
(гПа)
Тmin
(С)
Tmax
(С)
R
(мм)
R24
(мм)
S
(см)
18 12.07 СЗ 8-11
{20}
12 км н/о +38.8 +2.3 10 +35 +35 очень
жарко
995.9 996.0
21 12.07 СЗ 9-11
{11}
19 км н/о +35.3 +5.1 15 +33 +33 жарко 995.8 996.0 +33.4 +47.5
00 13.07 СЗ 9-13
{13}
19 км н/о +33.6 +4.9 17 +31 +31 жарко 995.4 995.0
03 13.07 СЗ 10-13
{13}
19 км н/о +33.5 +4.0 16 +31 +31 жарко 995.9 996.0
06 13.07 СЗ 12-15
{15}
17 км н/о +39.8 +2.0 10 +36 +36 очень
жарко
996.3 996.0
09 13.07 СЗ 12-16
{17}
10 км н/о +44.9 +2.9 8 +42 +42 опасность
перегрева
995.4 995.0
12 13.07 СЗ 11-17
{17}
9000 м дым н/о +46.0 +1.7 7 +43 +43 опасность
перегрева
994.3 994.0
15 13.07 СЗ 10-13
{17}
14 км н/о +43.4 +3.9 9 +40 +40 очень
жарко
994.6 995.0
18 13.07 СЗ 6-7
{17}
18 км н/о +37.6 +2.9 12 +34 +34 очень
жарко
996.6 997.0
21 13.07 СЗ 6-7
{8}
15 км н/о +34.2 +4.9 16 +32 +32 жарко 996.3 996.0 +32.4 +46.3
00 14.07 СЗ 3-4
{8}
19 км н/о +31.2 +4.8 19 +29 +29 жарко 995.7 996.0
03 14.07 З 3-5
{5}
18 км н/о +30.4 +5.2 20 +29 +29 жарко 996.7 997.0
06 14.07 СЗ 8-10
{11}
19 км н/о +39.1 +4.7 12 +36 +36 очень
жарко
997.3 997.0
09 14.07 СЗ 8-11
{13}
18 км н/о +44.0 +3.4 9 +41 +41 опасность
перегрева
996.2 996.0
12 14.07 З 6-11
{13}
19 км н/о +45.2 +1.3 7 +42 +42 опасность
перегрева
994.9 995.0
15 14.07 СЗ 8-10
{12}
19 км н/о +43.6 -0.6 7 +40 +40 очень
жарко
994.9 995.0
18 14.07 СЗ 5-6
{12}
20 км н/о +37.0 -1.0 9 +33 +33 жарко 996.5 997.0
21 14.07 СЗ 3-3
{6}
19 км н/о +33.5 -0.4 11 +30 +30 жарко 996.6 997.0 +30.0 +46.3
00 15.07 З 2-2
{6}
6000 м дым н/о +30.4 +1.1 15 +28 +28 жарко 996.6 997.0
03 15.07 З 6-8
{8}
19 км н/о +30.5 +0.4 14 +28 +28 жарко 997.8 998.0
06 15.07 СЗ 6-7
{8}
18 км н/о +39.2 +0.7 9 +35 +35 очень
жарко
997.9 998.0
09 15.07 З 4-8
{10}
19 км н/о +42.8 +2.7 9 +40 +40 очень
жарко
996.8 997.0
12 15.07 З 7-11
{17}
18 км н/о +44.3 +4.3 9 +41 +41 опасность
перегрева
995.3 995.0
15 15.07 З 7-11
{14}
17 км н/о +43.1 +3.1 9 +40 +40 очень
жарко
994.8 995.0
18 15.07 СЗ 5-6
{14}
12 км н/о +38.1 +1.4 10 +35 +35 очень
жарко
996.4 996.0
21 15.07 СЗ 5-6
{7}
15 км н/о +35.1 +4.8 15 +32 +32 жарко 996.0 996.0 +29.3 +44.8
00 16.07 СЗ 7-9
{9}
19 км н/о +34.3 +3.1 14 +31 +31 жарко 995.9 996.0
03 16.07 СЗ 7-9
{11}
18 км н/о +33.8 +1.6 13 +31 +31 жарко 997.0 997.0
06 16.07 СЗ 10-13
{14}
15 км н/о +40.1 +0.9 9 +36 +36 очень
жарко
997.0 997.0
09 16.07 З 7-12
{13}
19 км н/о +43.5 +3.7 9 +40 +40 очень
жарко
996.3 996.0
12 16.07 З 8-17
{17}
13 км дым н/о +43.9 +3.2 8 +40 +40 очень
жарко
995.0 995.0
15 16.07 З 9-12
{17}
12 км н/о +41.9 +2.2 9 +38 +38 очень
жарко
995.2 995.0
18 16.07 З 6-8
{17}
15 км н/о +37.3 +3.8 13 +34 +34 очень
жарко
996.8 997.0
21 16.07 СЗ 6-7
{9}
19 км н/о +34.5 +6.8 18 +32 +32 жарко 997.0 997.0 +33.2 +44.5
00 17.07 З 5-7
{10}
19 км н/о +33.2 +6.5 19 +31 +31 жарко 996.3 996.0
03 17.07 З 5-7
{9}
14 км дым н/о +30.5 +5.2 20 +29 +29 жарко 997.3 997.0
06 17.07 СЗ 13-15
{15}
5000 м дым н/о +38.0 +4.8 13 +35 +35 очень
жарко
997.9 998.0
09 17.07 СЗ 11-16
{17}
11 км н/о +40.7 +6.1 12 +38 +38 очень
жарко
997.0 997.0
12 17.07 СЗ 12-17
{19}
2300 м дым н/о +41.2 +3.2 10 +38 +38 очень
жарко
995.9 996.0
15 17.07 СЗ 11-14
{17}
5000 м дым н/о +39.8 +2.5 10 +36 +36 очень
жарко
995.9 996.0
18 17.07 СЗ 4-5
{17}
8000 м дым н/о +35.5 +4.2 14 +33 +33 жарко 996.9 997.0
21 17.07 З 5-7
{7}
8000 м дым н/о +32.8 +4.3 17 +30 +30 жарко 997.1 997.0 +30.3 +42.3
00 18.07 З 4-5
{7}
13 км н/о +29.6 +3.4 19 +28 +28 жарко 997.1 997.0
03 18.07 СЗ 5-7
{9}
8000 м дым н/о +30.1 +2.6 17 +28 +28 жарко 998.3 998.0
06 18.07 СЗ 8-11
{11}
7000 м дым н/о +37.2 +2.3 11 +34 +34 очень
жарко
998.1 998.0
09 18.07 З 8-13
{16}
12 км н/о +40.2 +2.8 10 +37 +37 очень
жарко
997.0 997.0
12 18.07 СЗ 8-13
{16}
11 км н/о +41.5 +3.2 10 +38 +38 очень
жарко
995.6 996.0
18 18.07 З 4-6
{14}
13 км н/о +35.6 +1.6 12 +32 +32 жарко 997.3 997.0
21 18.07 ЮЗ 4-6
{8}
4300 м дым н/о +34.0 +1.6 13 +31 +31 жарко 997.4 997.0 +29.0 +42.5
00 19.07 ЮЗ 5-6
{8}
6000 м дым н/о +31.6 +3.3 17 +29 +29 жарко 997.1 997.0
03 19.07 З 5-6
{8}
13 км н/о +29.7 +3.0 18 +28 +28 жарко 998.2 998.0
06 19.07 СЗ 5-8
{9}
18 км н/о +37.3 +3.8 13 +34 +34 очень
жарко
998.2 998.0
09 19.07 СЗ 3-7
{10}
14 км н/о +42.4 +3.5 9 +39 +39 очень
жарко
997.1 997.0
12 19.07 В 2-7
{10}
16 км н/о +44.3 +3.2 8 +41 +41 опасность
перегрева
995.8 996.0

 

Местоположение метеостанции Abraque Al Habari (Кувейт): широта 29.30 долгота 47.00 высота над уровнем моря 237 м.

В архиве по умолчанию представлена погода в Abraque Al Habari за последнюю неделю. Архивные данные за месяц целиком и за предыдущие месяцы, начиная с января 2011 года, Вы можете получить, выбрав интересующий диапазон дат из раскрывающегося списка и нажав кнопку "Ввод!".


*Определитесь, кто Вы:
робот инопланетянин человек

Внимание! Время в таблицах - всемирное. Для получения местного времени необходимо прибавить поправку, которая в Abraque Al Habari равна 3 ч.

Смотрите также архив погоды в соседних городах и на ближайших метеорологических станциях:

Погода в Al-Salmi (Кувейт) (38 км)
Погода в Minagish (Кувейт) (57 км)
Погода в Jahra (Кувейт) (65 км)
Погода в Jal Aliyah (Кувейт) (66 км)
Погода в Mitribah (Кувейт) (68 км)
Погода в Sulaibiya (Кувейт) (70 км)
Погода в Experimental Farm (Кувейт) (91 км)
Погода в Kuwait (Кувейт) (95 км)
Погода в Sabriyah (Кувейт) (96 км)
Погода в Kuwait City (Кувейт) (102 км)

Пояснения к столбцам:

Ветер - указаны скорость ветра в м/с - средняя за 10 мин, порывы в срок и между сроками (в фигурных скобках) и направление, откуда дует ветер: С - северный, СВ - северо-восточный, В - восточный, ЮВ - юго-восточный, Ю - южный, ЮЗ - юго-западный, З - западный, СЗ - северо-западный.
Видимость - горизонтальная дальность видимости в метрах или километрах. При видимости от 1 до 10 км при отсутствии осадков обычно наблюдается дымка, при ухудшении видимости до 1 км и менее - туман. В сухую погоду видимость может ухудшаться дымом, пылью или мглою.
Явления - указаны атмосферные явления, наблюдавшиеся в срок или в последний час перед сроком; фигурными скобками обозначены явления, наблюдавшиеся между сроками (за 1-3 часа до срока); квадратными скобками обозначены град или гололедные отложения с указанием их диаметра в мм.
Облачность - указаны через наклонную черту общая и нижняя облачность в баллах и высота нижней границы облаков в метрах; квадратными скобками обозначены формы облаков: Ci - перистые, Cs - перисто-слоистые, Cc - перисто-кучевые, Ac - высококучевые, As - высокослоистые, Sc - слоисто-кучевые, Ns - слоисто-дождевые, Cu - кучевые, Cb - кучево-дождевые. Подробнее классификацию облаков см. в Атласе облаков (PDF).
T - Температура воздуха - температура, измеренная на высоте 2 м над землей.
Td - Температура точки росы - температура, при понижении до которой содержащийся в воздухе водяной пар достигнет насыщения.
f - Относительная влажность воздуха - влажноcть воздуха, измеренная на высоте 2 м над землей.
Te - Эффективная температура - температура, которую ощущает одетый по сезону человек в тени. Характеристика душности погоды. При расчете учитывается влияние влажности воздуха и скорости ветра на теплоощущения человека.
Tes - Эффективная температура на солнце - температура, которую ощущает человек, с поправкой на солнечный нагрев. Характеристика знойности погоды. Зависит от высоты солнца над горизонтом, облачности и скорости ветра. Ночью, в пасмурную погоду, а также при ветре 12 м/с и более поправка равна нулю.
P - Атмосферное давление - приведенное к уровню моря атмосферное давление.
Po - Атмосферное давление - измеренное на уровне метеостанции атмосферное давление.
Tmin - Минимальная температура - минимум температуры воздуха на высоте 2 м над землей.
Tmax - Максимальная температура - максимум температуры воздуха на высоте 2 м над землей.
R - Количество осадков - Количество выпавших осадков за период времени, мм. При наведении курсора мыши на число - период времени, за который выпало указанное количество осадков.
R24 - Количество осадков - Количество выпавших осадков за 24 часа, мм.
S - Снежный покров - Высота снежного покрова, см. При наведении курсора мыши на число - состояние снежного покрова и степень покрытия местности в баллах.